Weather History for KANW - January, 2014

Change the Weather History Date:

Wednesday, January 15, 2014

  Actual Average (KVTN) Record (KVTN)
Temperature  
Mean Temperature 35 °F 24 °F  
Max Temperature 49 °F 37 °F 65 °F (2006)
Min Temperature 21 °F 11 °F -20 °F (1963)
Degree Days  
Heating Degree Days 30 41  
Month to date heating degree days 628  
Since 1 July heating degree days 3523  
Cooling Degree Days 0 0  
Month to date cooling degree days 0  
Year to date cooling degree days 0  
Moisture  
Dew Point 26 °F    
Average Humidity 68    
Maximum Humidity 91    
Minimum Humidity 41    
Precipitation  
Precipitation 0.00 in 0.01 in 0.19 in (1936)
Month to date precipitation 0.13  
Year to date precipitation 0.13  
Snow  
Snow 0.00 in 0.20 in 3.00 in (2003)
Month to date snowfall 2.0  
Since 1 July snowfall 14.7  
Snow Depth -    
Sea Level Pressure  
Sea Level Pressure 29.93 in    
Wind  
Wind Speed 7 mph (WSW)    
Max Wind Speed 36 mph    
Max Gust Speed 45 mph    
Visibility 10 miles    
Events      
T = Trace of Precipitation, MM = Missing Value Source: NWS Daily Summary

Daily Weather History Graph

Daily Weather History Graph

Search for Another Location

Airport or City:

Trip Planner

Search our weather history database for the weather conditions in past years. The results will help you decide how hot, cold, wet, or windy it might be!

Date:

Astronomy

Jan. 15, 2014 Rise Set
Actual Time 8:07 AM CST 5:32 PM CST
Civil Twilight 7:35 AM CST 6:03 PM CST
Nautical Twilight 7:01 AM CST 6:38 PM CST
Astronomical Twilight 6:27 AM CST 7:11 PM CST
Moon 5:32 PM CST (1/15) 7:23 AM CST (1/15)
Length of Visible Light 10h 27m
Length of Day
9h 24m
Full, 100% of the Moon is Illuminated
Jan 15
Full
Jan 15
Full
Jan 23
Last Quarter
Jan 30
New
Feb 6
First Quarter

Hourly Weather History & Observations

Time (CST) Temp. Windchill Dew Point Humidity Pressure Visibility Wind Dir Wind Speed Gust Speed Precip Events Conditions
12:15 AM 23.0 °F - 19.4 °F 86% 30.21 in 10.0 mi Calm Calm - N/A   Overcast
12:35 AM 24.3 °F - 19.8 °F 83% 30.20 in 10.0 mi Calm Calm - N/A   Overcast
12:55 AM 24.4 °F - 20.5 °F 85% 30.19 in 10.0 mi Calm Calm - N/A   Overcast
1:15 AM 24.3 °F - 21.0 °F 87% 30.18 in 10.0 mi Calm Calm - N/A   Overcast
1:35 AM 25.3 °F - 21.0 °F 84% 30.17 in 10.0 mi Calm Calm - N/A   Overcast
1:55 AM 25.3 °F - 20.5 °F 82% 30.16 in 10.0 mi Calm Calm - N/A   Overcast
2:15 AM 25.5 °F - 20.3 °F 81% 30.16 in 10.0 mi Calm Calm - N/A   Overcast
2:35 AM 25.0 °F 20.7 °F 20.3 °F 82% 30.16 in 10.0 mi WSW 3.5 mph - N/A   Overcast
2:55 AM 23.0 °F 18.4 °F 19.4 °F 86% 30.15 in 10.0 mi SW 3.5 mph - N/A   Scattered Clouds
3:15 AM 21.9 °F 15.7 °F 19.0 °F 89% 30.15 in 10.0 mi SW 4.6 mph - N/A   Scattered Clouds
3:35 AM 21.7 °F 15.5 °F 19.4 °F 91% 30.14 in 10.0 mi SW 4.6 mph - N/A   Scattered Clouds
3:55 AM 22.5 °F 17.8 °F 19.9 °F 90% 30.13 in 10.0 mi SSW 3.5 mph - N/A   Overcast
4:15 AM 23.0 °F 18.4 °F 20.3 °F 89% 30.12 in 10.0 mi SSW 3.5 mph - N/A   Overcast
4:35 AM 24.4 °F 20.1 °F 21.6 °F 89% 30.10 in 10.0 mi SW 3.5 mph - N/A   Overcast
4:55 AM 25.5 °F - 22.6 °F 89% 30.10 in 10.0 mi Calm Calm - N/A   Overcast
5:15 AM 26.1 °F - 23.2 °F 89% 30.10 in 10.0 mi Calm Calm - N/A   Overcast
5:35 AM 25.9 °F - 23.5 °F 91% 30.08 in 10.0 mi Calm Calm - N/A   Overcast
5:55 AM 26.1 °F 20.5 °F 23.4 °F 90% 30.07 in 10.0 mi ESE 4.6 mph - N/A   Overcast
6:15 AM 26.6 °F 22.6 °F 24.3 °F 91% 30.06 in 10.0 mi SE 3.5 mph - N/A   Overcast
6:35 AM 27.3 °F 22.0 °F 24.6 °F 90% 30.05 in 10.0 mi South 4.6 mph - N/A   Overcast
6:55 AM 27.5 °F 21.1 °F 25.2 °F 91% 30.03 in 10.0 mi South 5.8 mph - N/A   Overcast
7:15 AM 27.9 °F 20.6 °F 24.8 °F 88% 30.01 in 10.0 mi SSW 6.9 mph - N/A   Overcast
7:35 AM 28.4 °F 21.2 °F 24.4 °F 85% 30.01 in 10.0 mi SSW 6.9 mph - N/A   Overcast
7:55 AM 28.4 °F 20.4 °F 24.6 °F 86% 29.99 in 10.0 mi SSW 8.1 mph - N/A   Overcast
8:15 AM 29.1 °F 21.3 °F 24.4 °F 83% 29.98 in 10.0 mi SSW 8.1 mph - N/A   Overcast
8:35 AM 29.3 °F 21.5 °F 24.4 °F 82% 29.97 in 10.0 mi SSW 8.1 mph - N/A   Overcast
8:55 AM 31.1 °F 21.4 °F 23.9 °F 75% 29.96 in 10.0 mi SW 12.7 mph - N/A   Overcast
9:15 AM 32.0 °F 22.5 °F 24.3 °F 73% 29.96 in 10.0 mi SW 12.7 mph - N/A   Overcast
9:35 AM 32.9 °F 22.8 °F 24.6 °F 72% 29.96 in 10.0 mi SW 15.0 mph - N/A   Overcast
9:55 AM 33.4 °F 23.5 °F 24.8 °F 71% 29.94 in 10.0 mi SSW 15.0 mph - N/A   Overcast
10:15 AM 34.9 °F 26.6 °F 25.5 °F 69% 29.93 in 10.0 mi SW 11.5 mph - N/A   Overcast
10:35 AM 36.7 °F 28.9 °F 26.1 °F 65% 29.92 in 10.0 mi SW 11.5 mph - N/A   Overcast
10:55 AM 38.3 °F 30.5 °F 26.6 °F 63% 29.91 in 10.0 mi SW 12.7 mph - N/A   Overcast
11:15 AM 40.5 °F 32.5 °F 26.6 °F 58% 29.90 in 10.0 mi WSW 15.0 mph 19.6 mph N/A   Overcast
11:35 AM 43.0 °F 35.7 °F 27.3 °F 54% 29.89 in 10.0 mi WSW 15.0 mph 19.6 mph N/A   Mostly Cloudy
11:55 AM 43.9 °F 36.2 °F 27.3 °F 52% 29.87 in 10.0 mi West 17.3 mph - N/A   Mostly Cloudy
12:15 PM 45.5 °F 38.9 °F 27.5 °F 49% 29.85 in 10.0 mi West 15.0 mph 19.6 mph N/A   Overcast
12:35 PM 47.5 °F - 27.9 °F 47% 29.84 in 10.0 mi West 17.3 mph - N/A   Overcast
12:55 PM 47.3 °F - 27.3 °F 46% 29.81 in 10.0 mi West 18.4 mph 24.2 mph N/A   Overcast
1:15 PM 47.8 °F - 27.3 °F 45% 29.81 in 10.0 mi West 15.0 mph 21.9 mph N/A   Overcast
1:35 PM 47.5 °F - 27.5 °F 46% 29.80 in 10.0 mi West 16.1 mph 25.3 mph N/A   Overcast
1:55 PM 47.8 °F - 27.3 °F 45% 29.77 in 10.0 mi West 17.3 mph 23.0 mph N/A   Overcast
2:15 PM 48.2 °F - 27.3 °F 44% 29.77 in 10.0 mi West 16.1 mph - N/A   Overcast
2:35 PM 49.3 °F - 27.5 °F 43% 29.77 in 10.0 mi West 19.6 mph 25.3 mph N/A   Mostly Cloudy
2:55 PM 48.2 °F - 27.9 °F 45% 29.77 in 10.0 mi West 17.3 mph 25.3 mph N/A   Mostly Cloudy
3:15 PM 48.2 °F - 27.3 °F 44% 29.76 in 10.0 mi West 21.9 mph 27.6 mph N/A   Overcast
3:35 PM 48.2 °F - 27.0 °F 44% 29.76 in 10.0 mi West 17.3 mph 24.2 mph N/A   Overcast
3:55 PM 47.7 °F - 27.3 °F 45% 29.78 in 10.0 mi WNW 15.0 mph - N/A   Overcast
4:15 PM 49.1 °F - 26.4 °F 41% 29.78 in 10.0 mi WNW 23.0 mph 29.9 mph N/A   Overcast
4:35 PM 49.1 °F - 27.3 °F 43% 29.78 in 10.0 mi WNW 19.6 mph 31.1 mph N/A   Overcast
4:55 PM 47.8 °F - 30.2 °F 50% 29.79 in 10.0 mi WNW 19.6 mph 27.6 mph N/A   Overcast
5:15 PM 46.6 °F - 31.1 °F 55% 29.78 in 10.0 mi WNW 12.7 mph 21.9 mph N/A   Scattered Clouds
5:35 PM 44.6 °F 39.7 °F 31.5 °F 60% 29.78 in 10.0 mi WNW 9.2 mph - N/A   Clear
5:55 PM 42.6 °F 37.2 °F 30.9 °F 63% 29.78 in 10.0 mi WNW 9.2 mph - N/A   Clear
6:15 PM 41.0 °F 34.7 °F 30.7 °F 67% 29.79 in 10.0 mi West 10.4 mph - N/A   Clear
6:35 PM 39.7 °F 33.7 °F 30.2 °F 69% 29.80 in 10.0 mi West 9.2 mph - N/A   Clear
6:55 PM 38.3 °F 31.4 °F 30.0 °F 72% 29.80 in 10.0 mi West 10.4 mph - N/A   Clear
7:15 PM 37.2 °F 30.6 °F 30.2 °F 76% 29.81 in 10.0 mi WSW 9.2 mph - N/A   Mostly Cloudy
7:35 PM 37.9 °F 31.5 °F 30.2 °F 74% 29.80 in 10.0 mi WSW 9.2 mph - N/A   Mostly Cloudy
7:55 PM 36.5 °F 31.0 °F 29.7 °F 76% 29.80 in 10.0 mi WSW 6.9 mph - N/A   Mostly Cloudy
8:15 PM 35.2 °F 29.5 °F 29.3 °F 79% 29.81 in 10.0 mi West 6.9 mph - N/A   Scattered Clouds
8:35 PM 37.8 °F 30.7 °F 29.8 °F 73% 29.81 in 10.0 mi WNW 10.4 mph - N/A   Clear
8:55 PM 41.0 °F 34.3 °F 29.3 °F 63% 29.83 in 10.0 mi WNW 11.5 mph - N/A   Mostly Cloudy
9:15 PM 40.8 °F 33.7 °F 28.9 °F 63% 29.84 in 10.0 mi NW 12.7 mph - N/A   Overcast
9:35 PM 44.1 °F 37.1 °F 27.3 °F 52% 29.84 in 10.0 mi NNW 15.0 mph - N/A   Overcast
9:55 PM 44.8 °F 38.3 °F 26.6 °F 49% 29.83 in 10.0 mi NW 13.8 mph 26.5 mph N/A   Overcast
10:15 PM 45.0 °F 37.9 °F 25.5 °F 47% 29.84 in 10.0 mi NW 16.1 mph 24.2 mph N/A   Overcast
10:35 PM 45.0 °F 38.9 °F 24.6 °F 45% 29.84 in 10.0 mi WNW 12.7 mph 21.9 mph N/A   Overcast
10:55 PM 44.1 °F 36.8 °F 23.0 °F 43% 29.84 in 10.0 mi NW 16.1 mph 25.3 mph N/A   Mostly Cloudy
11:15 PM 43.9 °F 33.2 °F 22.1 °F 42% 29.87 in 10.0 mi NW 33.4 mph 44.9 mph N/A   Mostly Cloudy
11:35 PM 42.6 °F 31.5 °F 27.1 °F 54% 29.87 in 10.0 mi NW 33.4 mph 42.6 mph N/A   Overcast
11:55 PM 42.3 °F 30.7 °F 27.9 °F 57% 29.81 in 10.0 mi West 35.7 mph 44.9 mph N/A   Overcast